When you browse on this site, cookies collect data to enhance your experience and personalize the content and advertising you see.
Visit our Privacy Policy to learn more. By continuing to use the site, you agree to this use of cookies and data.
  • In United Kingdom
  • List of Countries
  • For 7 days
  • Water Temperature
  • Satellite Maps
  • Weather Map
  • Weather Widgets
  • user-avatar
    Login

    Hourly Weather Mazkeret Batya

    Today, 22 May, Wednesday

    Time Temperature Precipitation Wind Pressure Humidity
    00:00 +28°C° 0 mm 2 mps 757 mmHg 35%
    01:00 +27°C° 0 mm 2 mps 757 mmHg 34%
    02:00 +26°C° 0 mm 2 mps 756 mmHg 39%
    03:00 +26°C° 0 mm 2 mps 756 mmHg 39%
    04:00 +26°C° 0 mm 1 mps 756 mmHg 38%
    05:00 +26°C° 0 mm 1 mps 756 mmHg 38%
    06:00 +28°C° 0 mm 1 mps 757 mmHg 32%
    07:00 +31°C° 0 mm 1 mps 757 mmHg 27%
    08:00 +32°C° 0 mm 0 mps 756 mmHg 22%
    09:00 +35°C° 0 mm 1 mps 756 mmHg 20%
    10:00 +37°C° 0 mm 2 mps 756 mmHg 18%
    11:00 +38°C° 0 mm 3 mps 756 mmHg 17%
    12:00 +38°C° 0 mm 4 mps 756 mmHg 18%
    13:00 +39°C° 0 mm 5 mps 756 mmHg 19%
    14:00 +37°C° 0 mm 5 mps 756 mmHg 22%
    15:00 +37°C° 0 mm 5 mps 756 mmHg 23%
    16:00 +36°C° 0 mm 5 mps 756 mmHg 23%
    17:00 +36°C° 0 mm 5 mps 756 mmHg 24%
    18:00 +35°C° 0 mm 4 mps 756 mmHg 26%
    19:00 +33°C° 0 mm 3 mps 756 mmHg 28%
    20:00 +31°C° 0 mm 3 mps 756 mmHg 30%
    21:00 +31°C° 0 mm 3 mps 756 mmHg 29%
    22:00 +31°C° 0 mm 2 mps 756 mmHg 28%
    23:00 +30°C° 0 mm 2 mps 756 mmHg 27%

    Tomorrow, 23 May, Thursday

    Time Temperature Precipitation Wind Pressure Humidity
    00:00 +30°C° 0 mm 2 mps 756 mmHg 25%
    01:00 +30°C° 0 mm 2 mps 755 mmHg 23%
    02:00 +30°C° 0 mm 2 mps 755 mmHg 22%
    03:00 +30°C° 0 mm 2 mps 755 mmHg 20%
    04:00 +30°C° 0 mm 2 mps 755 mmHg 19%
    05:00 +30°C° 0 mm 2 mps 755 mmHg 18%
    06:00 +34°C° 0 mm 2 mps 755 mmHg 16%
    07:00 +36°C° 0 mm 3 mps 755 mmHg 15%
    08:00 +38°C° 0 mm 3 mps 755 mmHg 13%
    09:00 +39°C° 0 mm 2 mps 755 mmHg 12%
    10:00 +41°C° 0 mm 2 mps 754 mmHg 12%
    11:00 +42°C° 0 mm 2 mps 754 mmHg 11%
    12:00 +42°C° 0 mm 2 mps 754 mmHg 11%
    13:00 +43°C° 0 mm 2 mps 753 mmHg 11%
    14:00 +43°C° 0 mm 1 mps 753 mmHg 11%
    15:00 +43°C° 0 mm 3 mps 753 mmHg 12%
    16:00 +42°C° 0 mm 4 mps 752 mmHg 14%
    17:00 +41°C° 0 mm 5 mps 752 mmHg 16%
    18:00 +40°C° 0 mm 4 mps 752 mmHg 16%
    19:00 +38°C° 0 mm 4 mps 752 mmHg 16%
    20:00 +37°C° 0 mm 3 mps 752 mmHg 17%
    21:00 +37°C° 0 mm 3 mps 752 mmHg 15%
    22:00 +37°C° 0 mm 4 mps 752 mmHg 14%
    23:00 +37°C° 0 mm 4 mps 752 mmHg 13%

    Day after tomorrow, 24 May, Friday

    Time Temperature Precipitation Wind Pressure Humidity
    00:00 +37°C° 0 mm 5 mps 751 mmHg 13%
    01:00 +36°C° 0 mm 5 mps 751 mmHg 13%
    02:00 +36°C° 0 mm 6 mps 751 mmHg 13%
    03:00 +36°C° 0 mm 5 mps 751 mmHg 14%
    04:00 +35°C° 0 mm 4 mps 751 mmHg 15%
    05:00 +35°C° 0 mm 4 mps 751 mmHg 17%
    06:00 +37°C° 0 mm 4 mps 751 mmHg 16%
    07:00 +40°C° 0 mm 4 mps 751 mmHg 14%
    08:00 +42°C° 0 mm 4 mps 751 mmHg 13%
    09:00 +43°C° 0 mm 4 mps 751 mmHg 12%
    10:00 +45°C° 0 mm 5 mps 751 mmHg 11%
    11:00 +46°C° 0 mm 5 mps 751 mmHg 11%
    12:00 +45°C° 0 mm 6 mps 751 mmHg 13%
    13:00 +44°C° 0 mm 6 mps 750 mmHg 15%
    14:00 +43°C° 0 mm 7 mps 750 mmHg 17%
    15:00 +41°C° 0 mm 6 mps 750 mmHg 18%
    16:00 +40°C° 0 mm 5 mps 750 mmHg 19%
    17:00 +40°C° 0 mm 4 mps 749 mmHg 20%
    18:00 +38°C° 0 mm 3 mps 750 mmHg 22%
    19:00 +35°C° 0 mm 1 mps 750 mmHg 23%
    20:00 +32°C° 0 mm 0 mps 751 mmHg 25%
    21:00 +33°C° 0 mm 1 mps 751 mmHg 29%
    22:00 +32°C° 0 mm 2 mps 751 mmHg 33%
    23:00 +30°C° 0 mm 2 mps 752 mmHg 37%

    25 May, Saturday

    Time Temperature Precipitation Wind Pressure Humidity
    00:00 +29°C° 0 mm 2 mps 752 mmHg 42%
    01:00 +28°C° 0 mm 2 mps 752 mmHg 47%
    02:00 +27°C° 0 mm 1 mps 752 mmHg 52%
    03:00 +27°C° 0 mm 1 mps 752 mmHg 55%
    04:00 +26°C° 0 mm 1 mps 752 mmHg 59%
    05:00 +26°C° 0 mm 1 mps 752 mmHg 63%
    06:00 +27°C° 0 mm 2 mps 753 mmHg 59%
    07:00 +28°C° 0 mm 2 mps 754 mmHg 55%
    08:00 +29°C° 0 mm 2 mps 754 mmHg 51%
    09:00 +30°C° 0 mm 3 mps 754 mmHg 48%
    10:00 +31°C° 0 mm 3 mps 754 mmHg 45%
    11:00 +33°C° 0 mm 4 mps 754 mmHg 42%
    12:00 +33°C° 0 mm 4 mps 754 mmHg 42%
    13:00 +33°C° 0 mm 5 mps 754 mmHg 42%
    14:00 +33°C° 0 mm 5 mps 753 mmHg 42%
    15:00 +32°C° 0 mm 5 mps 753 mmHg 43%
    16:00 +30°C° 0 mm 5 mps 753 mmHg 44%
    17:00 +29°C° 0 mm 5 mps 753 mmHg 45%
    18:00 +28°C° 0 mm 4 mps 753 mmHg 48%
    19:00 +27°C° 0 mm 4 mps 754 mmHg 51%
    20:00 +26°C° 0 mm 3 mps 754 mmHg 54%
    21:00 +26°C° 0 mm 2 mps 754 mmHg 54%
    22:00 +25°C° 0 mm 2 mps 754 mmHg 55%
    23:00 +25°C° 0 mm 2 mps 754 mmHg 56%

    26 May, Sunday

    Time Temperature Precipitation Wind Pressure Humidity
    00:00 +25°C° 0 mm 1 mps 754 mmHg 59%
    01:00 +24°C° 0 mm 1 mps 754 mmHg 61%
    02:00 +24°C° 0 mm 1 mps 754 mmHg 64%
    03:00 +24°C° 0 mm 1 mps 754 mmHg 65%
    04:00 +23°C° 0 mm 1 mps 754 mmHg 66%
    05:00 +23°C° 0 mm 1 mps 754 mmHg 67%
    06:00 +24°C° 0 mm 2 mps 755 mmHg 61%
    07:00 +26°C° 0 mm 2 mps 755 mmHg 55%
    08:00 +27°C° 0 mm 3 mps 755 mmHg 49%
    09:00 +28°C° 0 mm 3 mps 755 mmHg 44%
    10:00 +30°C° 0 mm 4 mps 755 mmHg 39%
    11:00 +32°C° 0 mm 4 mps 754 mmHg 35%
    12:00 +32°C° 0 mm 5 mps 754 mmHg 35%
    13:00 +32°C° 0 mm 5 mps 754 mmHg 35%
    14:00 +32°C° 0 mm 6 mps 753 mmHg 35%
    15:00 +32°C° 0 mm 6 mps 753 mmHg 35%
    16:00 +30°C° 0 mm 5 mps 753 mmHg 36%
    17:00 +29°C° 0 mm 5 mps 753 mmHg 37%
    18:00 +28°C° 0 mm 4 mps 753 mmHg 42%
    19:00 +27°C° 0 mm 4 mps 753 mmHg 47%
    20:00 +26°C° 0 mm 3 mps 754 mmHg 53%
    21:00 +26°C° 0 mm 2 mps 754 mmHg 54%
    22:00 +25°C° 0 mm 2 mps 754 mmHg 54%
    23:00 +25°C° 0 mm 1 mps 754 mmHg 55%

    27 May, Monday

    Time Temperature Precipitation Wind Pressure Humidity
    00:00 +25°C° 0 mm 2 mps 753 mmHg 56%
    01:00 +24°C° 0 mm 2 mps 753 mmHg 58%
    02:00 +24°C° 0 mm 2 mps 753 mmHg 59%
    03:00 +24°C° 0 mm 2 mps 753 mmHg 60%
    04:00 +24°C° 0 mm 2 mps 753 mmHg 61%
    05:00 +23°C° 0 mm 2 mps 753 mmHg 62%
    06:00 +25°C° 0 mm 2 mps 753 mmHg 54%
    07:00 +27°C° 0 mm 2 mps 753 mmHg 47%
    08:00 +28°C° 0 mm 2 mps 754 mmHg 40%
    09:00 +30°C° 0 mm 2 mps 753 mmHg 35%
    10:00 +33°C° 0 mm 3 mps 753 mmHg 31%
    11:00 +35°C° 0 mm 3 mps 753 mmHg 27%
    12:00 +35°C° 0 mm 4 mps 752 mmHg 29%
    13:00 +35°C° 0 mm 5 mps 752 mmHg 30%
    14:00 +35°C° 0 mm 6 mps 751 mmHg 32%
    15:00 +34°C° 0 mm 6 mps 751 mmHg 35%
    16:00 +33°C° 0 mm 6 mps 751 mmHg 38%
    17:00 +32°C° 0 mm 6 mps 751 mmHg 40%
    18:00 +30°C° 0 mm 4 mps 751 mmHg 43%
    19:00 +29°C° 0 mm 3 mps 752 mmHg 47%
    20:00 +28°C° 0 mm 2 mps 752 mmHg 50%
    21:00 +27°C° 0 mm 2 mps 752 mmHg 54%
    22:00 +27°C° 0 mm 2 mps 752 mmHg 58%
    23:00 +26°C° 0 mm 1 mps 752 mmHg 62%
    Show more